BREEZE-M DEB, 41321

Orbit data source: Space-Track

BREEZE-M DEB, 41321 is space debris in HEO originally from a launch on Thu, 17 May 2012 UTC launched from the Tyuratam Missile And Space Complex (TTMTR). Debris objects in space refer to the collection of defunct objects orbiting the Earth. Examples of debris include non-operational satellites, rocket bodies, and fragments generated from explosions, collisions, or faulty payload assembly.

Loading next visibility...
Identifier
41321, 2012-026H
Orbit
HEO
Country
Flag of CISCIS
Related business
Manufacturer
Khrunichev
Mission
Spacecraft
Bus & Motor
Unknown
Mass
Unknown
Launch date (UTC)
2012-05-17 (13 years ago)
Launch vehicle
Unknown
Launch site
Tyuratam Missile And Space Complex (TTMTR)
Object type
Payload
Rocket body
Debris
Shape & HBR
Unknown shape, 1.1 m
Radar Cross Section
Medium (>0.1 m² and <1 m²)

Expand to show TLE details & history
Last TLE update: 1 week ago

TLE from 1 week ago
0 BREEZE-M DEB
1 41321U 12026H   25302.34100185 -.00000049  00000-0  00000-0 0  9990
2 41321  10.0750 157.7185 4094043   8.2770 356.9972  1.77038793 63643
Epoch: 2025-10-29T08:11Z
TLE epoch observation values (Epoch: 2025-10-29T08:11:02.559Z)
Latitude
0.00001°
Longitude
-2.89204°
Altitude
10,723.875 km
Speed
5.728 km/s
True Right ascension
10h 31m 08s
True Declination
0° 00' 00"
Sunlit
Object was in daylight at epoch
Visualization orbit readout
Latitude
Unknown
Longitude
Unknown
Altitude
Unknown
Speed
Unknown
Apparent Right ascension
Unknown
Apparent Declination
Unknown
Sunlit
N/A
Visualization observer readout
Local Sidereal Time
12:26:25
Azimuth
Unknown
Elevation
Unknown
Doppler factor
Unknown
Orbital elements
Apogee altitude
34,305.607 km
Perigee altitude
10,669.948 km
Semi-major axis
28,865.915 km
Eccentricity
0.4094
Inclination
10.075°
RAAN
157.7185°
Arg. of periapsis
8.277°
True anomaly
352.15991°
Mean anomaly
356.9972°
Eccentric anomaly
354.92025°
Mean motion
0.44255 °/min
Orbital period
813.46 mins
BSTAR
0
Loading maneuver chart data...
Computing Atmospheric mass density...
Loading historical data...
Loading historical data...
Loading historical data...
Loading historical data...
Loading historical data...
Loading historical data...
Loading historical data...

Documentation

Showing up to 5 results
|